sat.trackr.live / text

‹ back to catalog

YUBILEINY (RS30)

NORAD 32953 · 2008-025A

PAYLOAD ACTIVE UNKNOWN

§ Identity

Operator
Country
CIS
Launch date
2008-05-23
Launch site
PLMSC
Launch vehicle
Mass (kg)
RCS (m²)
0.39

Purposes: comms

External: N2YO · Heavens-Above · Gunter

§ Orbital elements

Epoch: 2026-09-04T03:04:16.442976Z

Period
115.83 min
Inclination
82.5043°
Eccentricity
0.0020486
Mean motion
12.43183072 rev/d
Perigee alt
1,477.0 km
Apogee alt
1,509.3 km
Semi-major
7,871.3 km
B*
7.7409e-4
RAAN
306.3461°
Arg perigee
137.3976°
Mean anomaly
222.8697°
Rev number
82,950

§ Raw data

YUBILEINY (RS30)1 32953U 08025A   26247.12796809  .00000118  00000+0  77409-3 0  99992 32953  82.5043 306.3461 0020486 137.3976 222.8697 12.43183072829506

JSON: /api/v1/satellites/32953 · /tle

For live sub-satellite position, see the globe view (requires WebGL).

§ Visibility from observer

Set your observer location to see the next 7 days of passes ≥ 10°. The values pass through the URL so the page stays shareable.

No JS? Fill the form by hand. The geolocation button needs JavaScript.

§ Radio — SatNOGS DB

ModeDescriptionDownlinkUplink
FM 435.353 435.353 MHz
CW PE0SAT - CW Beacon 435.316 MHz
PSK Telemetry Beacon 1 Beacon 435.215 MHz
DOKA Telemetry Beacon 2 Beacon 435.315 MHz

4 transmitters · refreshed weekly from db.satnogs.org